TimeMST,TemperatureF,Dew PointF,Humidity,Sea Level PressureIn,VisibilityMPH,Wind Direction,Wind SpeedMPH,Gust SpeedMPH,PrecipitationIn,Events,Conditions,WindDirDegrees,DateUTC
12:53 AM,39.0,21.9,50,29.74,10.0,SSW,15.0,18.4,N/A,,Overcast,200,2012-01-27 07:53:00
1:53 AM,37.9,21.9,53,29.75,10.0,WSW,8.1,-,N/A,,Overcast,240,2012-01-27 08:53:00
2:53 AM,36.0,21.9,57,29.75,10.0,West,4.6,-,N/A,,Overcast,260,2012-01-27 09:53:00
3:53 AM,36.0,23.0,59,29.77,10.0,WNW,10.4,-,N/A,,Partly Cloudy,300,2012-01-27 10:53:00
4:53 AM,39.0,28.9,67,29.80,10.0,NNW,25.3,33.4,N/A,,Clear,340,2012-01-27 11:53:00
5:53 AM,37.0,28.0,70,29.90,10.0,NNW,18.4,-,N/A,,Clear,330,2012-01-27 12:53:00
6:53 AM,34.0,27.0,75,29.95,10.0,NNW,15.0,-,N/A,,Mostly Cloudy,330,2012-01-27 13:53:00
7:53 AM,36.0,28.0,73,30.00,10.0,NNW,13.8,-,N/A,,Overcast,330,2012-01-27 14:53:00
8:53 AM,39.0,27.0,62,30.01,10.0,NNW,21.9,29.9,N/A,,Overcast,340,2012-01-27 15:53:00
9:53 AM,39.9,23.0,51,30.06,10.0,NNW,27.6,33.4,N/A,,Overcast,340,2012-01-27 16:53:00
10:53 AM,39.0,21.9,50,30.10,10.0,NNW,21.9,32.2,N/A,,Overcast,340,2012-01-27 17:53:00
11:53 AM,42.1,21.0,43,30.11,10.0,NNW,26.5,-,N/A,,Scattered Clouds,340,2012-01-27 18:53:00
12:53 PM,41.0,21.0,45,30.11,10.0,NNW,25.3,31.1,N/A,,Mostly Cloudy,330,2012-01-27 19:53:00
1:53 PM,39.9,21.9,49,30.14,10.0,North,23.0,35.7,N/A,,Scattered Clouds,350,2012-01-27 20:53:00
2:53 PM,39.9,17.1,40,30.18,10.0,NNW,21.9,29.9,N/A,,Partly Cloudy,340,2012-01-27 21:53:00
3:53 PM,37.9,10.0,32,30.22,10.0,NNW,20.7,31.1,N/A,,Mostly Cloudy,330,2012-01-27 22:53:00
4:53 PM,36.0,7.0,30,30.24,10.0,NW,20.7,31.1,N/A,,Mostly Cloudy,310,2012-01-27 23:53:00
5:53 PM,32.0,14.0,48,30.30,10.0,NW,21.9,31.1,N/A,,Clear,320,2012-01-28 00:53:00
6:53 PM,30.2,14.0,51,30.26,10.0,NW,18.4,25.3,N/A,,Mostly Cloudy,320,2012-01-28 01:53:00
7:53 PM,27.0,9.0,47,30.37,10.0,NW,16.1,-,N/A,,Clear,320,2012-01-28 02:53:00
8:53 PM,25.0,8.1,49,30.40,10.0,NW,11.5,-,N/A,,Clear,310,2012-01-28 03:53:00
9:53 PM,21.0,8.1,57,30.40,10.0,NW,10.4,-,N/A,,Clear,310,2012-01-28 04:53:00
10:53 PM,19.9,8.1,60,30.40,10.0,WNW,11.5,-,N/A,,Clear,300,2012-01-28 05:53:00
11:53 PM,17.1,7.0,65,30.39,10.0,West,11.5,-,N/A,,Clear,280,2012-01-28 06:53:00